Vorticity
nan nan nan nan nan nan nan nan nan nan nan nan nan nan nan nan nan nan nan nan nan nan nan nan nan nan nan nan nan nan nan nan nan nan nan nan nan nan nan nan nan nan nan nan
nan 6 9 11 12 19 4 5 6 15 12 9 14 4 3 5 13 12 7 6 6 6 8 8 7 9 10 9 11 10 7 5 4 4 6 8 9 9 10 8 11 9 8 nan
nan 3 13 14 9 11 11 9 9 9 5 12 1 4 8 6 5 12 11 11 10 9 6 7 8 7 11 15 10 9 9 5 5 3 3 6 8 9 8 8 9 9 11 nan
nan 9 11 11 10 7 8 11 6 7 5 11 -2 7 8 17 10 6 10 16 9 7 8 9 9 7 9 11 9 9 10 7 6 6 4 5 6 6 8 9 9 9 6 nan
nan 7 10 10 10 8 5 4 13 11 9 10 11 11 10 14 11 16 19 16 14 10 8 8 10 9 8 10 10 9 9 7 8 7 5 4 5 8 9 10 8 8 8 nan
nan 7 9 7 8 7 12 11 12 14 10 6 15 6 11 12 11 10 15 19 18 12 10 9 10 11 10 10 10 9 9 7 7 7 7 8 5 5 6 8 9 9 8 nan
nan 12 12 9 5 7 12 13 10 5 13 10 7 9 15 7 12 8 7 19 27 14 11 13 12 9 11 11 8 9 8 8 8 8 7 7 9 7 7 6 8 8 8 nan
nan 13 16 10 10 9 4 10 6 8 7 12 7 7 13 16 10 13 17 10 21 26 18 13 12 11 9 9 8 8 7 7 8 7 7 6 7 7 9 8 7 8 9 nan
nan 10 9 12 13 7 7 9 12 6 7 13 6 7 7 16 14 10 11 12 11 24 25 21 16 9 12 13 10 7 6 7 8 6 6 7 6 7 8 8 6 8 9 nan
nan 12 7 10 10 10 14 4 7 11 14 7 11 11 8 5 8 9 7 5 7 15 18 21 19 12 11 17 12 8 9 8 7 7 5 7 7 6 7 8 8 7 10 nan
nan 7 7 9 7 9 7 11 14 15 8 9 9 8 14 8 5 8 8 6 6 8 12 10 6 8 8 16 17 14 9 6 7 8 8 7 8 9 8 7 8 8 8 nan
nan 10 13 7 6 13 10 8 12 6 8 12 12 5 10 11 8 5 9 8 8 8 7 5 5 4 2 2 8 20 15 9 9 7 8 8 9 9 8 8 8 9 9 nan
nan 7 6 9 11 12 9 9 12 10 13 9 8 9 8 9 7 8 8 8 8 4 5 3 5 5 8 5 5 11 17 12 8 10 11 9 8 9 8 8 9 8 8 nan
nan 13 13 9 6 1 1 11 12 9 7 13 3 8 10 10 8 8 9 12 10 8 8 6 8 8 8 8 11 10 13 15 12 10 9 8 9 8 8 9 9 10 9 nan
nan 9 10 9 8 8 8 6 9 12 10 9 12 10 8 23 19 11 11 13 11 11 12 7 7 13 11 8 8 7 9 12 14 11 9 12 11 11 10 11 11 11 11 nan
nan 13 8 6 9 11 12 7 9 11 13 9 15 12 8 17 17 14 17 19 16 12 11 12 10 8 10 12 12 8 6 11 16 15 10 10 14 12 12 14 14 9 10 nan
nan 10 9 9 11 7 11 14 10 15 18 13 11 10 9 6 9 11 11 13 13 14 11 6 8 10 10 11 15 11 14 21 21 19 17 13 2 5 15 7 11 13 11 nan
nan 10 10 10 7 13 12 9 14 11 10 10 16 13 13 4 2 4 9 11 6 5 4 9 9 13 19 12 9 15 21 10 10 15 12 12 5 11 6 12 14 11 12 nan
nan 6 11 14 7 3 9 16 17 3 4 9 9 10 13 9 3 1 11 8 7 15 12 7 15 13 10 13 7 0 1 10 11 8 6 8 13 11 9 10 4 9 9 nan
nan 10 11 10 12 10 6 7 11 6 4 13 11 9 9 11 9 6 7 9 12 11 12 9 9 9 7 4 4 9 4 7 9 13 9 5 17 9 10 11 9 9 10 nan
nan 14 11 9 8 10 12 11 14 12 9 10 8 7 10 15 13 11 11 12 11 8 11 15 13 13 8 9 12 8 6 5 8 12 12 12 13 11 8 10 12 10 9 nan
nan 9 6 10 9 12 10 16 17 11 14 10 8 9 10 8 9 12 11 10 10 11 11 13 16 17 17 10 9 8 9 11 11 11 12 11 9 10 12 11 8 11 12 nan
nan 16 14 12 8 7 14 15 11 14 11 8 10 11 8 9 9 8 6 6 11 14 14 11 10 8 14 15 13 11 9 9 9 9 8 8 12 13 12 10 9 11 11 nan
nan 13 11 7 14 18 9 10 15 13 11 11 9 11 11 10 7 8 9 12 12 9 9 10 10 11 10 12 15 11 8 10 10 9 8 8 9 7 9 12 13 10 7 nan
nan 7 12 7 7 10 13 14 10 10 9 9 11 12 8 7 10 10 11 12 10 10 10 12 9 6 7 11 12 13 16 15 9 9 10 8 7 8 8 6 9 10 8 nan
nan nan nan nan nan nan nan nan nan nan nan nan nan nan nan nan nan nan nan nan nan nan nan nan nan nan nan nan nan nan nan nan nan nan nan nan nan nan nan nan nan nan nan nan
CAPE
0 0 0 0 0 1 0 22 56 28 259 282 515 392 449 602 139 36 1 0 0 0 0 0 0 0 0 0 0 279 591 862 740 300 427 496 667 484 574 525 1087 1279 541 820
0 0 0 0 0 0 0 12 48 11 31 343 645 150 25 128 108 278 33 22 8 0 0 0 0 0 0 0 105 413 624 715 737 300 670 481 629 576 539 0 214 932 722 751
0 0 0 0 0 0 0 0 0 6 480 564 287 138 241 605 240 295 526 65 68 94 18 0 0 0 4 64 189 298 641 685 776 571 397 579 417 60 0 0 0 210 418 885
0 0 0 0 0 0 0 0 0 0 0 337 348 123 23 67 246 513 55 315 128 133 159 55 13 22 60 199 196 321 722 707 626 322 543 846 825 511 328 45 0 2 0 74
0 0 0 0 0 0 0 0 0 0 0 0 22 89 84 14 0 0 52 68 401 228 208 175 124 84 135 303 347 390 628 625 568 316 353 794 585 331 175 88 0 0 0 237
0 0 0 0 0 0 0 0 0 0 0 0 0 48 71 16 26 0 2 54 420 466 343 251 176 149 107 374 421 721 664 677 613 449 319 672 690 519 262 39 77 0 0 69
0 0 0 0 0 0 0 0 0 0 0 0 0 0 56 37 16 12 9 7 639 589 521 391 265 152 70 509 412 909 774 658 798 757 708 782 956 692 432 72 0 0 0 260
0 0 0 0 0 0 0 0 0 0 0 0 0 0 0 0 23 4 0 364 482 546 615 442 273 67 184 630 491 910 814 676 701 859 1090 1213 1100 718 366 69 0 0 3 420
0 0 0 0 0 0 0 0 0 0 0 0 0 0 4 2 102 782 1245 1136 995 777 496 413 339 49 499 870 594 618 808 682 717 566 594 932 1247 1370 711 289 105 241 441 829
0 0 0 0 0 0 0 0 0 0 0 0 1 12 0 513 701 1073 1165 1087 843 584 557 474 326 263 394 751 922 649 850 1183 1060 912 830 984 1161 1206 1581 1144 636 589 652 865
0 0 0 0 0 0 0 0 0 0 0 0 4 26 0 487 976 1290 1157 1034 1113 722 686 679 566 441 414 339 522 1231 769 975 1480 1638 1495 1445 1656 1760 1609 1688 1549 1269 915 638
0 0 0 0 0 0 0 0 0 0 0 0 0 2 0 565 1157 1374 1181 793 859 637 556 559 573 658 438 681 406 901 1512 1229 1246 1459 1597 2110 2255 2276 2179 2111 2042 1916 1376 988
0 0 0 0 0 0 0 0 0 0 0 0 0 0 81 190 83 1097 1175 435 707 533 412 485 456 252 48 31 717 194 1067 1518 1585 1672 1597 1430 1760 2537 2540 2400 2095 2141 2077 1391
0 0 0 0 0 0 0 0 0 0 0 0 0 0 0 427 271 24 503 232 677 447 301 380 321 88 53 66 174 471 123 1475 1693 1772 1971 1980 1802 2090 2415 2627 2575 2190 1971 2090
0 0 0 0 0 0 0 0 0 0 0 0 0 0 0 0 212 20 539 1112 373 603 253 10 89 24 0 64 238 190 18 18 1662 2105 2029 2150 2211 2228 2297 2269 2466 2432 1938 2157
0 0 0 0 0 0 0 0 0 0 0 0 0 0 24 817 902 984 673 680 367 181 788 643 442 275 178 148 190 287 36 92 439 2197 2133 1451 1239 1367 1053 1626 2098 2306 1924 2130
0 0 0 0 0 0 0 0 0 0 0 0 45 7 133 306 516 1002 1039 830 856 1149 1009 1004 871 610 586 391 65 51 169 597 1029 1673 1290 895 906 724 408 853 1984 2580 2252 2284
0 0 0 0 0 0 0 0 0 0 0 0 6 90 68 236 294 233 523 566 486 436 271 407 163 175 799 611 293 317 285 306 235 189 106 118 64 36 1 24 273 696 942 1299
0 0 0 0 0 0 0 0 0 0 0 0 0 0 5 29 5 0 0 393 241 5 0 279 430 320 212 453 377 50 91 254 292 41 23 18 22 0 0 45 132 50 120 268
0 0 0 0 0 0 0 0 0 0 0 0 0 0 0 0 0 0 0 0 23 10 10 58 405 165 45 99 152 101 0 4 288 246 109 62 38 3 0 0 0 0 0 0
0 0 0 0 0 0 0 0 0 0 0 0 0 0 0 0 0 0 0 0 0 0 0 0 175 425 0 0 0 0 0 0 0 405 723 353 2 9 0 49 74 1 0 20
0 0 0 0 0 0 0 0 0 0 0 0 0 0 0 0 0 0 0 0 0 0 0 0 0 30 43 0 0 0 0 0 5 46 347 814 1464 1315 856 986 1114 1191 1139 1553
0 0 0 0 0 0 0 0 0 0 0 0 0 0 0 0 0 0 0 0 0 0 0 0 0 0 0 149 0 0 0 17 85 190 395 390 307 839 1298 1205 1495 1163 799 617
0 0 0 0 0 0 0 0 0 0 0 0 0 0 0 0 0 0 0 0 0 0 0 0 0 0 0 0 0 0 0 0 0 143 205 132 0 0 330 1581 1338 1473 1138 899
0 0 0 0 0 0 0 0 0 0 0 0 0 0 0 0 0 0 0 0 0 0 0 0 0 0 0 0 0 0 0 0 0 0 0 0 0 0 0 69 1175 1778 1712 1589
0 0 0 0 0 0 0 0 0 0 0 0 0 0 0 0 0 0 0 0 0 0 0 0 0 0 0 0 0 0 0 7 11 11 16 5 26 110 33 52 525 565 1095 1182